Location: Observatoire de l'Aigle
(47.0607°N, 71.3152°W)
Time: 20:52:00
(UTC-04:00)

Daily predictions for brighter satellites

Satellite Brightness Start Highest point End
(mag) Time Altitude Azimuth Time Altitude Azimuth Time Altitude Azimuth
Cosmos 1743 Rocket 3.8 21:14:46 10° SSW 21:19:13 79° W 21:23:43 10° N
MetOp-A 4.3 21:15:05 10° SSE 21:20:23 67° ENE 21:25:42 10° N
ARGOS 3.8 21:15:22 10° SE 21:20:25 42° ENE 21:25:29 10° N
Cosmos 1437 4.0 21:20:20 10° SSE 21:23:08 26° E 21:25:56 10° NE
deb Chang Zheng 4 3.8 21:20:03 10° NNE 21:24:24 80° WNW 21:28:44 10° SSW
H-2A R/B 3.5 21:21:06 10° ESE 21:25:27 26° ENE 21:29:53 10° N
Cosmos 1500 Rocket 3.6 21:21:37 10° S 21:25:59 86° E 21:30:25 10° N
Cosmos 2219 4.2 21:23:17 10° SSE 21:28:01 27° ESE 21:32:47 10° NE
Cosmos 2322 3.8 21:27:09 10° NNW 21:32:55 80° ENE 21:38:38 10° SSE
ATLAS CENTAUR R/B 3.8 21:31:48 10° WNW 21:34:53 18° WSW 21:37:49 10° SSW
SL-08 RB Rocket 4.3 21:30:53 10° SE 21:35:04 41° ENE 21:39:18 10° N
Cosmos 2237 Rocket 4.0 21:31:01 10° N 21:35:17 21° NE 21:39:30 10° E
Cosmos 1441 Rocket 3.6 21:33:14 10° SSW 21:37:00 67° WNW 21:40:46 10° N
SPOT 1/Viking Rocket 3.7 21:32:07 10° SSE 21:37:12 66° ENE 21:42:19 10° N
Cosmos 2322 Rocket 3.5 21:33:46 10° NW 21:38:50 36° WSW 21:43:54 10° S
Cosmos 1680 Rocket 3.6 21:33:50 10° NNW 21:39:06 78° ENE 21:44:22 10° SSE
PSLV R/B 3.8 21:38:45 10° S 21:41:47 55° W 21:44:49 10° NNW
Cosmos 923 Rocket 4.1 21:37:08 10° NNW 21:42:22 78° WSW 21:47:34 10° SSE
Cosmos 1726 3.2 21:41:19 10° N 21:44:43 30° ENE 21:47:47 12° SE
SL-16 R/B 3.6 21:43:04 10° NW 21:48:05 33° WSW 21:53:05 10° SSW
Cosmos 304 Rocket 3.9 21:44:43 10° NNW 21:49:34 82° WSW 21:54:23 10° SSE
Cosmos 2360 Rocket 2.3 21:44:20 10° NNW 21:50:01 77° WSW 21:55:39 10° SSE
Cosmos 2315 Rocket 4.0 21:44:39 10° N 21:50:54 76° E 21:57:06 10° SSE
USA 245 2.1 21:48:58 11° SSE 21:51:31 84° ENE 21:53:54 10° NNW
CZ-4B R/B 3.6 21:47:03 10° NNE 21:52:20 66° ESE 21:57:32 10° S
Cosmos 1908 4.1 21:48:48 10° NNW 21:52:35 50° W 21:56:21 10° S
NOAA 11 4.2 21:49:34 10° SSE 21:54:58 75° ENE 22:00:27 10° N
AVUM R/B 2.3 21:54:37 10° SSW 21:56:57 80° ESE 21:59:32 10° NNE
Cosmos 2266 Rocket 4.2 21:53:28 10° SSW 21:59:47 77° W 22:06:01 10° N
Landsat 7 4.1 21:56:08 12° SE 22:00:20 54° ENE 22:05:00 10° N
CARTOSAT-1 4.3 22:00:12 14° SE 22:03:38 41° ENE 22:07:42 10° N
USA 229 DEB 3.8 21:59:30 10° SW 22:06:27 88° NW 22:13:32 10° NE
USA 229 3.8 21:59:36 10° SW 22:06:34 89° NW 22:13:39 10° NE
Cosmos 1633 Rocket 3.6 22:05:12 14° SSE 22:08:41 40° E 22:12:48 10° NNE
Sich 1 3.5 22:05:34 13° SSE 22:09:12 43° E 22:13:23 10° NNE
Cosmos 292 Rocket 4.4 22:07:40 10° NNW 22:12:16 45° ENE 22:15:51 16° SE
Aureole 3 4.5 22:05:52 10° S 22:12:44 86° W 22:18:11 10° N
Cosmos 2151 3.4 22:12:00 10° SSW 22:16:09 61° WNW 22:20:20 10° N
Terra 2.1 22:12:30 16° SE 22:16:12 55° ENE 22:20:52 10° N
Cosmos 1674 4.1 22:12:47 10° SSW 22:16:24 39° WNW 22:20:04 10° N
Cosmos 2227 Rocket 3.7 22:15:59 15° SE 22:18:22 19° E 22:22:10 10° ENE
Cosmos 2333 Rocket 3.0 22:15:06 10° NNW 22:20:34 42° NE 22:25:11 14° ESE
Meteor 1-4 Rocket 2.9 22:18:04 10° N 22:21:49 56° ENE 22:24:10 20° SSE
Cosmos 1805 Rocket 3.6 22:17:25 10° S 22:21:53 90° NW 22:26:22 10° N
USA 32 4.2 22:16:38 10° N 22:21:54 64° E 22:25:57 17° SSE
Cosmos 1300 2.8 22:18:14 10° NNW 22:22:06 74° W 22:25:08 16° S
CZ-4 R/B 3.9 22:17:54 10° NNE 22:22:55 89° ESE 22:27:48 10° SSW
SeaSat 1 3.8 22:18:40 10° ESE 22:22:57 30° NE 22:27:13 10° N
Nadezhda 1 Rocket 4.4 22:17:27 10° N 22:23:20 49° ENE 22:27:49 17° SE
NOSS 3-1 (A) 3.9 22:20:44 10° S 22:26:10 39° ESE 22:32:09 10° NE
Cosmos 1626 3.7 22:25:01 17° ESE 22:26:23 20° E 22:29:14 10° NE
SL-16 R/B 4.0 22:21:59 10° N 22:26:27 23° NE 22:30:54 10° E
COSMOS 2428 2.8 22:26:38 10° NNW 22:32:19 72° WSW 22:36:34 18° SSE
Lacrosse 4 Rocket 3.8 22:30:57 10° N 22:33:55 17° NE 22:36:55 10° E
CZ-4C R/B 3.3 22:31:52 18° S 22:34:17 60° W 22:37:44 10° NNW
Cosmos 1869 4.4 22:32:03 10° N 22:35:43 32° ENE 22:37:47 20° ESE
Cosmos 1707 Rocket 4.1 22:32:50 10° NNW 22:37:05 54° W 22:40:39 14° SSW
Cosmos 1745 Rocket 4.1 22:32:33 16° SSE 22:37:30 59° E 22:43:34 10° NNE
Cosmos 1666 Rocket 3.7 22:39:52 12° SSW 22:43:55 72° W 22:48:22 10° N
Cosmos 1455 2.7 22:41:26 10° N 22:45:07 46° ENE 22:46:54 26° SE
Cosmos 2297 Rocket 3.5 22:43:59 18° SE 22:45:54 22° E 22:50:06 10° NE
Cosmos 2298 Rocket 4.0 22:41:59 10° SSW 22:47:18 80° ESE 22:52:39 10° NNE
Cosmos 2058 3.9 22:43:36 10° SSW 22:47:32 44° WNW 22:51:29 10° N
ATLAS 2AS CENTAUR R/B 3.9 22:45:16 19° SSE 22:49:06 29° ESE 22:55:40 10° NE
Cosmos 2219 Rocket 2.2 22:47:29 10° NNW 22:53:07 87° ENE 22:56:41 23° SSE
COSMOS 2455 3.9 22:48:17 10° NNW 22:53:56 39° NE 22:59:00 13° ESE
Cosmos 1470 Rocket 3.5 22:54:47 25° S 22:57:11 65° E 23:01:29 10° NNE
GEOS 3 Rocket 4.1 22:54:34 16° ESE 22:58:40 54° NE 23:03:43 10° NNW
Cosmos 1933 Rocket 3.6 22:56:12 25° S 22:58:43 65° E 23:03:10 10° NNE
Cosmos 1937 Rocket 3.5 22:56:44 19° S 23:00:30 66° ESE 23:05:41 10° NNE
H-2A R/B 2.7 23:00:41 18° S 23:04:31 53° W 23:09:51 10° NNW
Cosmos 220 Rocket 4.0 23:02:18 24° S 23:04:47 64° ESE 23:09:12 10° NNE
BREEZE-M DEB (TANK) 2.0 23:04:14 10° WNW 23:06:17 62° SSW 23:07:05 39° SE
Cosmos 1980 3.7 23:00:57 10° NNW 23:06:39 82° ENE 23:10:00 26° SSE
Cosmos 1386 Rocket 4.4 23:04:48 21° S 23:08:53 74° E 23:14:55 10° NNE
ATLAS 3B R/B 3.3 23:02:20 10° NW 23:09:22 55° NE 23:15:00 15° ESE
IGS 5A 4.1 23:07:26 22° SSW 23:09:50 47° W 23:13:53 10° NNW
Cosmos 1703 3.6 23:07:24 21° SSW 23:09:54 64° WNW 23:13:49 10° N
Cosmos 2219 4.0 23:06:13 10° SW 23:11:51 54° WNW 23:17:30 10° NNE
Cosmos 1271 Rocket 3.8 23:09:14 10° NNW 23:12:48 38° W 23:14:51 21° SSW
NOSS 0 Rocket 4.0 23:07:34 10° NNW 23:13:44 75° WSW 23:17:23 26° SSE
NOSS 3-1 (C) 3.5 23:08:21 10° SW 23:14:19 85° NW 23:21:03 10° NE
Cosmos 990 Rocket 4.0 23:13:26 25° S 23:16:24 64° ESE 23:21:31 10° NNE
Cosmos 1726 4.3 23:17:04 10° NW 23:19:55 20° W 23:22:28 11° SW
Cosmos 2237 Rocket 2.2 23:14:22 10° NNW 23:20:07 86° WSW 23:23:15 28° SSE
Cosmos 389 Rocket 4.2 23:17:27 10° NNE 23:20:21 22° ENE 23:21:30 19° E
Cosmos 1933 3.7 23:18:56 10° N 23:22:56 53° ENE 23:24:22 34° SE
Cosmos 2082 3.8 23:21:49 25° S 23:25:02 58° ESE 23:30:40 10° NNE
Cosmos 1862 Rocket 4.2 23:31:07 10° NNW 23:35:19 48° W 23:37:19 27° SSW
IKONOS-2 4.5 23:36:22 37° S 23:38:02 82° WSW 23:42:22 10° NNW
Cosmos 1898 Rocket 4.4 23:33:53 10° SW 23:38:52 46° WNW 23:43:54 10° NNE
Cosmos 1048 Rocket 4.2 23:38:28 10° NNW 23:43:49 68° ENE 23:46:28 30° SE
Cosmos 1125 Rocket 3.8 23:42:38 33° SSE 23:44:40 50° ESE 23:49:49 10° NNE
CZ-4B R/B 2.6 23:43:58 30° ESE 23:44:50 35° ENE 23:48:02 10° N
USA 234 4.4 23:40:35 10° E 23:46:42 44° NNE 23:52:50 10° NW
Cosmos 1689 Rocket 3.1 23:53:08 37° E 23:53:41 40° ENE 23:56:50 10° N
Terra 3.8 23:51:23 12° SW 23:54:17 19° W 23:57:41 10° NW
Aureole 2 Rocket 4.0 23:53:43 10° N 23:56:15 23° ENE 23:57:03 21° E
